Location: Kuppenheim
(48.8299°N, 8.2568°E)
Time: 07:18:19
(UTC+00:00)

N. Korean satellite - Pass Details

Date: 29 November 2022
Orbit: 407 x 442 km, 97.3° (Epoch: 04 February)

Event Time Altitude Azimuth Distance (km) Brightness Sun altitude
Rises 05:09:51 0° 9° (N) 2,532 10.2 -16.8°
Reaches altitude 10° 05:11:56 10° 5° (N) 1,649 9.2 -16.5°
Maximum altitude 05:15:25 56° 287° (WNW) 567 6.5 -16.0°
Drops below altitude 10° 05:18:50 10° 208° (SSW) 1,623 9.1 -15.4°
Sets 05:20:53 0° 204° (SSW) 2,487 10.1 -15.1°
